Regional Weather Roundup
Issued by NWS Little Rock, AR

Home | Current Version | Previous Version | Graphics & Text | Print | Product List | Glossary On
Versions: 1 2 3 4 5 6 7 8 9 10 11 12 13 14 15 16 17 18 19 20 21 22 23 24 25 26 27 28 29 30 31 32 33 34 35 36 37 38 39 40 41 42 43 44 45 46 47 48 49 50
000
ASUS44 KLZK 200105
RWRLZK

WEATHER ROUNDUP FOR ARKANSAS
NATIONAL WEATHER SERVICE LITTLE ROCK AR
800 PM CDT FRI SEP 19 2014

NOTE: "FAIR" INDICATES FEW OR NO CLOUDS BELOW 12,000 FEET WITH NO
SIGNIFICANT WEATHER AND/OR OBSTRUCTIONS TO VISIBILITY.

ARZ001-003-010-029-200200-
NORTHWEST ARKANSAS

CITY           SKY/WX    TMP DP  RH WIND       PRES   REMARKS
FAYETTEVILLE   CLEAR     69  67  93 CALM      30.00S
FORT SMITH     CLEAR     77  70  79 E3        29.96R
HARRISON       PTCLDY    71  66  84 CALM      30.02S
BENTONVILLE    PTCLDY    75  66  73 SW3       30.01S
ROGERS         CLOUDY    75  67  76 SW3       30.02R
SILOAM SPGS    CLEAR     73  64  73 CALM      30.01S
HIGHFILL       CLEAR     74  68  81 SW3       30.00S
SPRINGDALE     PTCLDY    75  66  73 S3        30.02S
$$

ARZ004-005-016-200200-
NORTH CENTRAL ARKANSAS

CITY           SKY/WX    TMP DP  RH WIND       PRES   REMARKS
BATESVILLE     CLEAR     75  64  69 E3        30.00R
FLIPPIN        CLEAR     73  63  68 CALM      30.00S
MTN HOME       CLEAR     72  65  78 E3        29.99F
$$

ARZ040-041-200200-
WEST CENTRAL ARKANSAS

CITY           SKY/WX    TMP DP  RH WIND       PRES   REMARKS
MENA           CLEAR     77  72  83 CALM      30.00R
MOUNT IDA      CLEAR     75  71  87 CALM      29.98R
$$

ARZ009-017-025-026-028-200200-
NORTHEAST ARKANSAS

CITY           SKY/WX    TMP DP  RH WIND       PRES   REMARKS
CORNING          N/A     73  66  78 E3        30.01R
JONESBORO      CLEAR     72  67  84 N3        29.99S
NEWPORT        CLEAR     75  68  79 NE3       30.00R
WALNUT RIDGE   CLEAR     72  64  78 E6        29.99S
BLYTHEVILLE    CLEAR     73  68  84 E3        30.00S
$$

ARZ022-023-033-042-044-200200-
CENTRAL ARKANSAS

CITY           SKY/WX    TMP DP  RH WIND       PRES   REMARKS
LITTLE ROCK    PTCLDY    78  67  68 SE5       29.98R
N LITTLE ROCK  PTCLDY    78  70  76 SE6       29.98R
JACKSONVILLE   CLEAR     74  70  85 E1        29.98S
SEARCY         CLEAR     74  69  84 CALM      29.99S
HOT SPRINGS    CLEAR     78  70  76 CALM      29.99R
RUSSELLVILLE   CLEAR     73  69  87 CALM      29.98R
CLINTON        FAIR      73  70  88 CALM      30.00R
$$

ARZ036-200200-
EAST ARKANSAS

CITY           SKY/WX    TMP DP  RH WIND       PRES   REMARKS
WEST MEMPHIS   CLEAR     73  70  90 CALM      29.98S
$$

ARZ050-053-066-070-073-200200-
SOUTHWEST ARKANSAS

CITY           SKY/WX    TMP DP  RH WIND       PRES   REMARKS
ARKADELPHIA    FAIR      75  74  97 CALM      29.98R
CAMDEN         CLEAR     73  70  88 CALM      29.96S
TEXARKANA      CLEAR     76  72  87 E3        29.96R
EL DORADO      CLEAR     74  71  91 N3        29.97R
DE QUEEN       CLEAR     74  71  91 NE3       29.94S
$$

ARZ056-057-069-200200-
SOUTHEAST ARKANSAS

CITY           SKY/WX    TMP DP  RH WIND       PRES   REMARKS
PINE BLUFF     CLEAR     75  68  78 NE5       29.98R
STUTTGART      CLEAR     79  66  65 E5        29.99S
MONTICELLO     CLEAR     76  71  85 CALM      29.97R

$$




USA.gov is the U.S. government's official web portal to all federal, state and local government web resources and services.